Tracking 29892 objects as of 21-Nov-2024
HD Live streaming from Space Station
objects crossing your sky now

IRIDIUM 33 DEB

Track IRIDIUM 33 DEB now!
10-day predictions


NORAD ID: 46974
Int'l Code: 1997-051ACG
Perigee: 707.3 km
Apogee: 871.5 km
Inclination: 86.3 °
Period: 100.5 minutes
Semi major axis: 7160 km
RCS: Unknown
Launch date: September 14, 1997
Source: United States (US)
Launch site: TYURATAM MISSILE AND SPACE COMPLEX (TTMTR)

Note: This is SATELLITE DEBRIS
Your satellite tracking list
Your tracking list is empty




NASA's NSSDC Master Catalog

Two Line Element Set (TLE):
1 46974U 97051ACG 24319.14927487  .00021186  00000-0  71975-2 0  9992
2 46974  86.3090 275.3911 0114641  39.7798 321.1732 14.32846440518476
Source of the keplerian elements: AFSPC